Location: Unspecified
(0.0000°N, 0.0000°E)
Time: 21:13:38
(UTC+00:00)

Amateur Radio Satellites - All Passes

Search period start: 09 December 2016 20:43
Search period end: 10 December 2016 20:43
Location: Unspecified, 0.0000°N, 0.0000°E

Satellite Date Start Highest point End Downlink Frequencies (MHz)
Time Altitude Azimuth
ZACube-1 09 Dec 20:47:09 20:51:44 70° 258° (WSW) 20:56:16 437.345
PCSat 09 Dec 20:50:21 20:55:28 44° 71° (ENE) 21:00:35 145.827
FUNcube-1 09 Dec 20:52:36 20:57:09 65° 259° (WSW) 21:01:39 145.935
TIGRISAT 09 Dec 20:56:19 20:57:23 11° 102° (ESE) 20:58:28 435.000
DELFI C3 09 Dec 20:56:41 21:00:12 31° 79° (ENE) 21:03:41 145.870
ANTELSAT 09 Dec 20:57:56 20:59:53 13° 102° (ESE) 21:01:50 437.575/2403.000
Oscar 11 09 Dec 21:19:04 21:22:48 28° 258° (WSW) 21:26:30 145.826/435.025
HUMSAT D 09 Dec 21:40:50 21:45:05 68° 79° (ENE) 21:49:17 437.325/437.525
PRISM 09 Dec 21:55:15 21:56:32 11° 282° (WNW) 21:57:49 437.425
DANDE 09 Dec 21:59:43 22:03:37 27° 259° (W) 22:08:33 436.750
UNISAT 6 09 Dec 22:00:53 22:05:06 68° 282° (WNW) 22:09:20 437.425
SRMSAT 09 Dec 22:22:54 22:27:30 23° 197° (SSW) 22:32:07 437.500
ESTCUBE 1 09 Dec 22:23:17 22:26:34 20° 78° (ENE) 22:29:49 437.505/2401.250
GONETS M04 09 Dec 22:23:41 22:25:27 11° 94° (E) 22:27:13
CUBEBUG 1 09 Dec 22:30:05 22:31:43 12° 78° (ENE) 22:33:21 437.445
TIGRISAT 09 Dec 22:30:12 22:33:49 27° 282° (WNW) 22:37:26 435.000
POPSAT HIP 1 09 Dec 22:32:37 22:35:13 16° 102° (ESE) 22:37:49 437.405
ANTELSAT 09 Dec 22:32:56 22:36:20 24° 282° (WNW) 22:39:45 437.575/2403.000
PCSat 09 Dec 22:36:45 22:38:37 12° 250° (WSW) 22:40:28 145.827
VELOX 1 09 Dec 22:50:31 22:52:52 14° 78° (ENE) 22:55:13 145.980
Cosmos 2499 09 Dec 23:01:49 23:08:51 33° 92° (E) 23:16:15 435.465 / 435.565
JAS-2 09 Dec 23:17:58 23:23:38 69° 282° (WNW) 23:30:06 435.910
NANOSAT C BR1 09 Dec 23:22:41 23:26:52 88° 102° (ESE) 23:31:03 145.865
AO-85 09 Dec 23:27:43 23:33:04 87° 112° (ESE) 23:38:10 145.980
QB50P2 09 Dec 23:32:37 23:36:41 53° 282° (WNW) 23:40:47 145.880/145.840
POLYITAN 1 09 Dec 23:33:00 23:37:06 57° 282° (WNW) 23:41:13 437.675
DUCHIFAT 1 09 Dec 23:42:54 23:46:55 50° 282° (WNW) 23:50:57 145.980
QB50P1 09 Dec 23:44:55 23:48:48 38° 282° (WNW) 23:52:41 145.935-145.965
AISAT 09 Dec 23:48:05 23:52:28 75° 258° (WSW) 23:56:51 437.250
ESTCUBE 1 10 Dec 00:00:05 00:03:06 18° 258° (WSW) 00:06:06 437.505/2401.250
50 SAT 10 Dec 00:00:58 00:04:22 51° 258° (WSW) 00:07:47 437.505
CUBEBUG 1 10 Dec 00:04:03 00:07:43 27° 258° (WSW) 00:11:24 437.445
POPSAT HIP 1 10 Dec 00:07:46 00:10:43 19° 282° (WNW) 00:13:41 437.405
Oscar 19 10 Dec 00:08:15 00:11:16 16° 103° (ESE) 00:14:16 437.125/150
GONETS M04 10 Dec 00:13:08 00:21:55 77° 273° (W) 00:30:37
SRMSAT 10 Dec 00:15:18 00:17:27 12° 188° (S) 00:19:37 437.500
JUGNU 10 Dec 00:20:40 00:22:00 11° 173° (S) 00:23:20 437.505
ISS 10 Dec 00:21:24 00:24:34 47° 235° (SW) 00:27:45 145.825
BUGSAT 1 10 Dec 00:23:27 00:27:20 44° 282° (WNW) 00:31:11 437.445
UKube-1 10 Dec 00:23:32 00:27:51 84° 255° (WSW) 00:32:09 .
DX 1 10 Dec 00:24:33 00:28:48 54° 258° (WSW) 00:33:01 434.975-435.025
VELOX 1 10 Dec 00:25:31 00:29:03 24° 258° (WSW) 00:32:35 145.980
SPROUT 10 Dec 00:28:00 00:31:55 35° 258° (WSW) 00:35:49 437.525
Gurwin Techsat 1B 10 Dec 00:36:54 00:39:44 15° 103° (ESE) 00:42:34 435.225
Cosmos 2499 10 Dec 00:54:45 01:01:35 31° 274° (W) 01:08:50 435.465 / 435.565
BEESAT 3 10 Dec 01:30:23 01:31:59 12° 112° (ESE) 01:33:36 437.485
TISAT 1 10 Dec 01:35:08 01:39:06 39° 258° (WSW) 01:43:04 437.305
Oscar 19 10 Dec 01:45:43 01:50:17 32° 283° (WNW) 01:54:53 437.125/150
SWISSCUBE 10 Dec 01:49:54 01:54:21 39° 78° (ENE) 01:58:47 437.505
BEESAT 10 Dec 01:53:31 01:57:56 38° 78° (ENE) 02:02:20 436.000
AUBIESAT-1 10 Dec 01:54:04 01:57:20 27° 73° (ENE) 02:00:47 437.475
JUGNU 10 Dec 02:07:39 02:11:52 20° 164° (SSE) 02:16:05 437.505
BEESAT 2 10 Dec 02:07:44 02:10:02 15° 112° (ESE) 02:12:20 435.950
M-CUBED/EXP-1 PRIME 10 Dec 02:09:27 02:13:08 66° 74° (ENE) 02:17:07 437.505
O/OREOS (USA 219) 10 Dec 02:10:54 02:15:22 82° 255° (WSW) 02:19:51 437.305
Gurwin Techsat 1B 10 Dec 02:14:36 02:19:23 35° 283° (WNW) 02:24:12 435.225
ITAMSAT 1 10 Dec 02:22:49 02:27:40 42° 103° (ESE) 02:32:33 435.822/435.867
ITUPSAT 1 10 Dec 02:23:35 02:28:24 86° 259° (W) 02:33:11 437.325
MOZHAYETS 4 10 Dec 02:24:38 02:27:17 15° 78° (ENE) 02:29:54
AO-7 10 Dec 03:00:06 03:08:20 63° 106° (ESE) 03:16:34 29.400- 29.500
BEESAT 3 10 Dec 03:06:27 03:09:21 20° 292° (WNW) 03:12:15 437.485
SWISSCUBE 10 Dec 03:31:17 03:31:51 10° 257° (WSW) 03:32:24 437.505
BEESAT 10 Dec 03:34:22 03:35:25 11° 257° (WSW) 03:36:29 436.000
BEESAT 2 10 Dec 03:44:57 03:47:33 17° 292° (WNW) 03:50:09 435.950
STARS 10 Dec 03:53:57 03:57:49 30° 78° (ENE) 04:01:40 437.465
SRMSAT 10 Dec 03:54:35 03:58:05 16° 167° (SSE) 04:01:34 437.500
JUGNU 10 Dec 03:55:29 04:01:10 48° 160° (SSE) 04:06:54 437.505
RS-15 10 Dec 03:59:02 04:07:30 25° 111° (ESE) 04:16:11 29.354- 29.394
KKS-1 10 Dec 03:59:10 04:03:37 80° 256° (WSW) 04:08:05 437.445
MOZHAYETS 4 10 Dec 04:00:23 04:04:10 25° 258° (WSW) 04:07:56
ITAMSAT 1 10 Dec 04:05:24 04:06:51 11° 283° (WNW) 04:08:18 435.822/435.867
CUBESAT XI-V 10 Dec 04:14:00 04:18:17 38° 78° (ENE) 04:22:32 437.345
AO-7 10 Dec 04:55:56 05:00:41 16° 287° (WNW) 05:05:26 29.400- 29.500
Cubesat XI-IV 10 Dec 04:56:47 04:59:24 14° 103° (ESE) 05:02:01 437.490
BRITE-PL 10 Dec 04:59:54 05:05:35 75° 282° (WNW) 05:11:09 437.365/2234.400
AIST 2 10 Dec 05:10:40 05:14:32 46° 112° (ESE) 05:18:26 435.215
NOAA 18 10 Dec 05:14:58 05:17:19 13° 104° (ESE) 05:19:40 137.9125
HORYU 2 10 Dec 05:25:56 05:30:07 43° 282° (WNW) 05:34:18 437.375
STARS 10 Dec 05:32:28 05:33:53 11° 257° (WSW) 05:35:18 437.465
LilacSat-2 10 Dec 05:37:49 05:41:28 50° 101° (ESE) 05:45:08 437.200
DOVE 4 10 Dec 05:41:32 05:46:06 39° 101° (E) 05:50:26 437.250
SRMSAT 10 Dec 05:42:23 05:47:47 34° 161° (SSE) 05:53:12 437.500
JUGNU 10 Dec 05:44:24 05:50:14 61° 339° (NNW) 05:56:08 437.505
GOMX 1 10 Dec 05:52:29 05:57:39 49° 282° (WNW) 06:02:34 467.674
SO-50 10 Dec 05:58:19 06:02:23 36° 248° (WSW) 06:06:29 436.795
CUTE-I 10 Dec 06:06:31 06:11:48 78° 283° (WNW) 06:17:07 437.470
RS-15 10 Dec 06:08:32 06:19:23 57° 291° (WNW) 06:30:52 29.354- 29.394
YUBILEINY 10 Dec 06:12:04 06:20:53 77° 88° (E) 06:29:42 435.215
Cosmos 2491 10 Dec 06:14:06 06:22:58 89° 89° (E) 06:31:45 435.465 / 435.565
NOAA 15 10 Dec 06:15:18 06:20:26 53° 283° (WNW) 06:25:37 137.62
STRAND 1 10 Dec 06:20:12 06:24:28 26° 77° (ENE) 06:28:42 437.568
AIST 1 10 Dec 06:25:28 06:29:32 38° 86° (E) 06:33:34
CINEMA 3 10 Dec 06:29:04 06:32:36 24° 101° (E) 06:36:04 145.822/145.860
Cosmos 2504 10 Dec 06:33:33 06:41:13 45° 86° (E) 06:48:22 435.465 / 435.565
HO-68 10 Dec 06:33:59 06:39:51 27° 105° (ESE) 06:45:42 435.675
Cubesat XI-IV 10 Dec 06:34:20 06:39:10 37° 283° (WNW) 06:44:02 437.490
PHONESAT 2.4 10 Dec 06:45:11 06:47:47 71° 223° (SW) 06:50:23 2401.200-2431.200
NOAA 18 10 Dec 06:52:32 06:57:40 42° 283° (WNW) 07:02:48 137.9125
CUTE 1.7 + AOD 2 10 Dec 06:57:38 07:01:26 33° 101° (ESE) 07:05:16 437.475
CANX-2 10 Dec 07:16:07 07:20:21 79° 102° (ESE) 07:24:38 2200.000
DOVE 4 10 Dec 07:22:22 07:23:24 11° 284° (WNW) 07:24:26 437.250
SRMSAT 10 Dec 07:31:02 07:37:05 89° 338° (NNW) 07:43:07 437.500
SEEDS 10 Dec 07:32:22 07:36:32 66° 101° (ESE) 07:40:45 437.485
COMPASS 1 10 Dec 07:34:35 07:38:30 40° 101° (ESE) 07:42:27 437.405
JUGNU 10 Dec 07:34:46 07:39:30 24° 343° (NNW) 07:44:14 437.505
CUSAT 1 10 Dec 07:36:39 07:39:47 19° 102° (ESE) 07:42:25 437.405
Oscar 11 10 Dec 07:52:59 07:55:29 15° 102° (ESE) 07:58:00 145.826/435.025
CUBEBUG 2 10 Dec 07:53:17 07:57:24 64° 101° (ESE) 08:01:31 437.445
STRAND 1 10 Dec 07:59:51 08:03:22 19° 257° (WSW) 08:06:52 437.568
CINEMA 3 10 Dec 08:07:28 08:09:27 13° 283° (WNW) 08:11:26 145.822/145.860
YUBILEINY 10 Dec 08:15:17 08:17:17 11° 267° (W) 08:19:18 435.215
PRISM 10 Dec 08:20:43 08:24:12 28° 78° (ENE) 08:27:41 437.425
HO-68 10 Dec 08:21:00 08:27:14 33° 285° (WNW) 08:33:30 435.675
UWE-3 10 Dec 08:26:19 08:30:26 73° 281° (W) 08:34:34 435.000/436.395/437.385
Cosmos 2504 10 Dec 08:28:46 08:34:06 19° 268° (W) 08:39:14 435.465 / 435.565
AAUSAT CUBESAT 2 10 Dec 08:35:17 08:39:01 33° 281° (WNW) 08:42:47 437.432
DELFI C3 10 Dec 08:55:03 08:58:34 30° 101° (ESE) 09:02:08 145.870
ZACube-1 10 Dec 08:57:24 09:01:21 47° 281° (WNW) 09:05:22 437.345
FUNcube-1 10 Dec 09:02:30 09:06:25 44° 281° (WNW) 09:10:23 145.935
DANDE 10 Dec 09:02:43 09:09:10 74° 96° (E) 09:13:55 436.750
TIGRISAT 10 Dec 09:07:06 09:10:28 20° 78° (ENE) 09:13:49 435.000
ANTELSAT 10 Dec 09:09:28 09:13:08 23° 78° (ENE) 09:16:47 437.575/2403.000
CUSAT 1 10 Dec 09:20:30 09:21:11 10° 268° (W) 09:21:51 437.405
SRMSAT 10 Dec 09:21:01 09:26:22 33° 341° (NNW) 09:31:43 437.500
PCSat 10 Dec 09:26:20 09:31:37 58° 289° (WNW) 09:36:55 145.827
JUGNU 10 Dec 09:26:54 09:29:16 12° 351° (N) 09:31:38 437.505
Oscar 11 10 Dec 09:28:04 09:31:20 22° 282° (WNW) 09:34:40 145.826/435.025
HUMSAT D 10 Dec 09:45:26 09:49:30 79° 100° (E) 09:53:39 437.325/437.525
UNISAT 6 10 Dec 10:13:53 10:18:22 45° 258° (WSW) 10:22:51 437.425
ESTCUBE 1 10 Dec 10:36:31 10:40:31 31° 102° (ESE) 10:44:32 437.505/2401.250
POPSAT HIP 1 10 Dec 10:38:12 10:41:21 20° 78° (ENE) 10:44:30 437.405
CUBEBUG 1 10 Dec 10:38:53 10:41:44 17° 102° (ESE) 10:44:35 437.445
TIGRISAT 10 Dec 10:43:22 10:46:52 21° 258° (WSW) 10:50:22 435.000
ANTELSAT 10 Dec 10:46:23 10:49:33 18° 258° (WSW) 10:52:43 437.575/2403.000
JAS-2 10 Dec 10:51:16 10:58:30 69° 78° (ENE) 11:04:52 435.910
GONETS M04 10 Dec 10:52:03 10:58:54 26° 87° (E) 11:05:47
VELOX 1 10 Dec 11:01:03 11:04:22 21° 102° (ESE) 11:07:41 145.980
SPROUT 10 Dec 11:02:06 11:03:26 11° 102° (ESE) 11:04:46 437.525
Cosmos 2499 10 Dec 11:12:35 11:19:47 40° 86° (E) 11:26:30 435.465 / 435.565
SRMSAT 10 Dec 11:12:42 11:16:06 15° 348° (NNW) 11:19:28 437.500
NANOSAT C BR1 10 Dec 11:28:20 11:32:35 76° 258° (WSW) 11:36:50 145.865
QB50P2 10 Dec 11:38:56 11:43:00 43° 258° (WSW) 11:47:03 145.880/145.840
POLYITAN 1 10 Dec 11:39:16 11:43:23 46° 258° (WSW) 11:47:30 437.675
AO-85 10 Dec 11:41:16 11:45:01 45° 248° (WSW) 11:48:58 145.980
50 SAT 10 Dec 11:47:39 11:51:13 88° 98° (E) 11:54:50 437.505
DUCHIFAT 1 10 Dec 11:48:19 11:52:20 42° 258° (WSW) 11:56:21 145.980
QB50P1 10 Dec 11:51:05 11:54:53 31° 258° (WSW) 11:58:40 145.935-145.965
ISS 10 Dec 11:55:24 11:58:38 85° 306° (NW) 12:01:53 145.825
AISAT 10 Dec 11:59:44 12:04:02 50° 282° (WNW) 12:08:20 437.250
POPSAT HIP 1 10 Dec 12:14:13 12:16:51 16° 258° (WSW) 12:19:29 437.405
CUBEBUG 1 10 Dec 12:14:30 12:17:44 20° 282° (WNW) 12:20:59 437.445
ESTCUBE 1 10 Dec 12:15:31 12:17:03 12° 282° (WNW) 12:18:35 437.505/2401.250
BUGSAT 1 10 Dec 12:26:19 12:30:16 41° 259° (WSW) 12:34:14 437.445
UKube-1 10 Dec 12:31:57 12:36:14 63° 282° (WNW) 12:40:30 .
DX 1 10 Dec 12:34:16 12:38:20 39° 282° (WNW) 12:42:26 434.975-435.025
SPROUT 10 Dec 12:35:29 12:39:05 27° 282° (WNW) 12:42:41 437.525
VELOX 1 10 Dec 12:37:42 12:40:33 17° 282° (WNW) 12:43:25 145.980
Oscar 19 10 Dec 12:40:12 12:44:57 39° 78° (ENE) 12:49:41 437.125/150
JAS-2 10 Dec 12:40:50 12:42:48 11° 253° (WSW) 12:44:43 435.910
GONETS M04 10 Dec 12:47:21 12:55:18 40° 267° (W) 13:03:23
JUGNU 10 Dec 13:06:17 13:09:35 15° 12° (NNE) 13:12:52 437.505
Cosmos 2499 10 Dec 13:07:09 13:12:25 20° 268° (W) 13:17:30 435.465 / 435.565
Gurwin Techsat 1B 10 Dec 13:13:14 13:18:15 42° 77° (ENE) 13:23:14 435.225
BEESAT 3 10 Dec 13:22:09 13:24:00 13° 68° (ENE) 13:25:52 437.485
TISAT 1 10 Dec 13:40:29 13:44:13 33° 282° (WNW) 13:47:59 437.305
AO-7 10 Dec 13:41:20 13:42:28 10° 72° (ENE) 13:43:34 29.400- 29.500
AUBIESAT-1 10 Dec 13:53:36 13:57:03 26° 104° (ESE) 14:00:20 437.475
BEESAT 2 10 Dec 14:00:43 14:03:17 17° 68° (ENE) 14:05:51 435.950
M-CUBED/EXP-1 PRIME 10 Dec 14:09:20 14:13:32 66° 106° (ESE) 14:17:24 437.505
SWISSCUBE 10 Dec 14:11:25 14:16:09 78° 103° (ESE) 14:20:56 437.505
BEESAT 10 Dec 14:14:57 14:19:42 75° 103° (ESE) 14:24:26 436.000
O/OREOS (USA 219) 10 Dec 14:22:03 14:26:28 46° 284° (WNW) 14:30:50 437.305
Oscar 19 10 Dec 14:22:07 14:23:58 12° 257° (WSW) 14:25:50 437.125/150
MOZHAYETS 4 10 Dec 14:40:05 14:43:48 25° 102° (ESE) 14:47:33
ITUPSAT 1 10 Dec 14:46:02 14:50:32 43° 282° (WNW) 14:55:04 437.325
JUGNU 10 Dec 14:53:54 14:59:10 32° 19° (NNE) 15:04:24 437.505
SRMSAT 10 Dec 14:54:34 14:56:41 12° 8° (N) 14:58:48 437.500
Gurwin Techsat 1B 10 Dec 14:55:57 14:57:53 12° 257° (WSW) 14:59:50 435.225
ITAMSAT 1 10 Dec 14:57:31 15:02:44 71° 257° (WSW) 15:07:56 435.822/435.867
BEESAT 3 10 Dec 14:58:23 15:01:23 21° 248° (WSW) 15:04:22 437.485
AO-7 10 Dec 15:26:26 15:34:45 84° 255° (WSW) 15:43:03 29.400- 29.500
AUBIESAT-1 10 Dec 15:30:11 15:31:08 11° 288° (WNW) 15:32:05 437.475
BEESAT 2 10 Dec 15:38:11 15:40:49 17° 248° (WSW) 15:43:26 435.950
RS-15 10 Dec 15:42:13 15:50:29 21° 66° (ENE) 15:58:24 29.354- 29.394
STARS 10 Dec 16:04:28 16:08:35 42° 102° (ESE) 16:12:43 437.465
HORYU 2 10 Dec 16:04:35 16:06:17 12° 78° (ENE) 16:07:58 437.375
KKS-1 10 Dec 16:11:43 16:16:01 52° 282° (WNW) 16:20:21 437.445
MOZHAYETS 4 10 Dec 16:18:06 16:20:42 15° 282° (WNW) 16:23:18
SO-50 10 Dec 16:31:22 16:34:55 20° 112° (ESE) 16:38:26 436.795
CUBESAT XI-V 10 Dec 16:31:45 16:36:25 71° 102° (ESE) 16:41:08 437.345
GOMX 1 10 Dec 16:40:00 16:42:39 16° 77° (ENE) 16:45:23 467.674
SRMSAT 10 Dec 16:42:00 16:46:37 23° 17° (NNE) 16:51:13 437.500
JUGNU 10 Dec 16:42:20 16:48:18 86° 21° (NNE) 16:54:13 437.505
YUBILEINY 10 Dec 16:53:00 16:58:00 17° 93° (E) 17:02:58 435.215
Cosmos 2491 10 Dec 16:54:06 17:00:06 21° 87° (E) 17:06:07 435.465 / 435.565
CUTE-I 10 Dec 17:07:33 17:11:25 20° 77° (ENE) 17:15:15 437.470
AIST 2 10 Dec 17:08:42 17:12:50 59° 68° (ENE) 17:16:56 435.215
NOAA 15 10 Dec 17:14:00 17:18:22 27° 77° (ENE) 17:22:43 137.62
BRITE-PL 10 Dec 17:28:16 17:31:50 28° 259° (W) 17:35:27 437.365/2234.400
LilacSat-2 10 Dec 17:32:19 17:36:00 41° 79° (E) 17:39:38 437.200
Cubesat XI-IV 10 Dec 17:33:54 17:38:57 42° 77° (ENE) 17:43:58 437.490
HORYU 2 10 Dec 17:38:37 17:42:32 30° 257° (WSW) 17:46:28 437.375
RS-15 10 Dec 17:50:56 18:02:42 66° 250° (WSW) 18:13:56 29.354- 29.394
NOAA 18 10 Dec 17:56:28 18:01:41 43° 77° (ENE) 18:06:53 137.9125
DOVE 4 10 Dec 18:01:18 18:05:48 71° 78° (ENE) 18:10:33 437.250
PHONESAT 2.4 10 Dec 18:02:59 18:05:29 35° 137° (SE) 18:07:58 2401.200-2431.200
SO-50 10 Dec 18:11:28 18:15:08 22° 292° (WNW) 18:18:48 436.795
GOMX 1 10 Dec 18:17:15 18:20:28 21° 259° (W) 18:23:49 467.674
HO-68 10 Dec 18:26:07 18:31:27 23° 75° (ENE) 18:36:45 435.675
SRMSAT 10 Dec 18:30:11 18:36:00 59° 21° (NNE) 18:41:50 437.500
AIST 1 10 Dec 18:31:51 18:36:02 54° 94° (E) 18:40:13
JUGNU 10 Dec 18:32:03 18:37:23 35° 199° (SSW) 18:42:42 437.505
Cosmos 2504 10 Dec 18:43:30 18:51:13 60° 92° (E) 18:59:30 435.465 / 435.565
CINEMA 3 10 Dec 18:43:52 18:48:25 45° 78° (ENE) 18:53:06 145.822/145.860
YUBILEINY 10 Dec 18:45:56 18:54:24 57° 273° (W) 19:02:52 435.215
CUTE-I 10 Dec 18:46:44 18:51:10 27° 257° (WSW) 18:55:37 437.470
Cosmos 2491 10 Dec 18:48:16 18:56:31 49° 267° (W) 19:04:52 435.465 / 435.565
STRAND 1 10 Dec 18:51:54 18:56:57 67° 102° (ESE) 19:02:01 437.568
NOAA 15 10 Dec 18:54:16 18:57:52 19° 257° (WSW) 19:01:27 137.62
CUTE 1.7 + AOD 2 10 Dec 19:03:53 19:07:52 40° 79° (E) 19:11:49 437.475
Cubesat XI-IV 10 Dec 19:16:30 19:18:43 13° 257° (WSW) 19:20:55 437.490
CANX-2 10 Dec 19:22:40 19:26:56 83° 260° (W) 19:31:07 2200.000
SEEDS 10 Dec 19:37:41 19:41:52 80° 79° (ENE) 19:46:02 437.485
COMPASS 1 10 Dec 19:38:44 19:42:43 46° 79° (ENE) 19:46:39 437.405
FUNcube-1 10 Dec 19:39:13 19:40:02 10° 78° (ENE) 19:40:50 145.935
NOAA 18 10 Dec 19:39:40 19:42:02 13° 256° (WSW) 19:44:23 137.9125
Oscar 11 10 Dec 20:01:04 20:04:15 20° 78° (ENE) 20:07:25 145.826/435.025
DANDE 10 Dec 20:03:52 20:06:09 13° 92° (E) 20:08:42 436.750
CUBEBUG 2 10 Dec 20:04:57 20:09:42 83° 259° (WSW) 20:14:27 437.445
CUSAT 1 10 Dec 20:07:58 20:13:48 81° 86° (E) 20:21:09 437.405
HO-68 10 Dec 20:12:19 20:18:50 39° 255° (WSW) 20:25:21 435.675
SRMSAT 10 Dec 20:19:30 20:25:13 50° 201° (SSW) 20:30:57 437.500
PCSat 10 Dec 20:20:04 20:24:39 28° 71° (ENE) 20:29:14 145.827
PRISM 10 Dec 20:23:06 20:26:49 31° 102° (ESE) 20:30:31 437.425
JUGNU 10 Dec 20:23:28 20:26:52 16° 193° (SSW) 20:30:16 437.505
